Weather History for LTCF - January, 2013

Change the Weather History Date:

Tuesday, January 22, 2013

  Actual Average Record
Temperature  
Mean Temperature 14 °F -  
Max Temperature 32 °F 25 °F - ()
Min Temperature 3 °F 7 °F - ()
Degree Days  
Heating Degree Days 52    
Moisture  
Dew Point 15 °F    
Average Humidity 94    
Maximum Humidity 100    
Minimum Humidity 80    
Precipitation  
Precipitation 0.00 in 0.03 in - ()
Sea Level Pressure  
Sea Level Pressure 30.12 in    
Wind  
Wind Speed 3 mph ()    
Max Wind Speed 12 mph    
Max Gust Speed -    
Visibility 4.4 miles    
Events Fog    
T = Trace of Precipitation, MM = Missing Value Source: Averaged Metar Reports

Daily Weather History Graph

Daily Weather History Graph

Search for Another Location

Airport or City:

Trip Planner

Search our weather history database for the weather conditions in past years. The results will help you decide how hot, cold, wet, or windy it might be!

Date:

Astronomy

Jan. 22, 2013 Rise Set
Actual Time 6:25 AM EET 4:13 PM EET
Civil Twilight 5:55 AM EET 4:43 PM EET
Nautical Twilight 5:22 AM EET 5:16 PM EET
Astronomical Twilight 4:50 AM EET 5:48 PM EET
Moon 12:19 PM EET (1/22) 2:27 AM EET (1/22)
Length of Visible Light 10h 47m
Length of Day
9h 47m
Waxing Gibbous, 80% of the Moon is Illuminated
Jan 22
Waxing Gibbous
Jan 27
Full
Feb 3
Last Quarter
Feb 10
New
Feb 17
First Quarter

Hourly Weather History & Observations

Time (EET) Temp. Windchill Dew Point Humidity Pressure Visibility Wind Dir Wind Speed Gust Speed Precip Events Conditions
12:50 AM 15.8 °F 10.2 °F 15.8 °F 100% 30.18 in 6.2 mi NE 3.5 mph - N/A   Scattered Clouds
1:50 AM 14.0 °F 2.0 °F 14.0 °F 100% 30.18 in 6.2 mi ENE 9.2 mph - N/A   Scattered Clouds
2:00 AM 15 °F - 15 °F 98%  in 6 mi ENE 9.2 mph - -   Partly Cloudy
2:50 AM 12.2 °F 4.3 °F 12.2 °F 100% 30.18 in 6.2 mi NE 4.6 mph - N/A   Scattered Clouds
3:50 AM 10.4 °F 2.2 °F 8.6 °F 92% 30.15 in 6.2 mi ENE 4.6 mph - N/A   Scattered Clouds
4:50 AM 8.6 °F - 6.8 °F 92% 30.15 in 6.2 mi Calm Calm - N/A   Scattered Clouds
5:50 AM 5.0 °F - 3.2 °F 92% 30.15 in 3.7 mi Calm Calm - N/A   Scattered Clouds
6:50 AM 6.8 °F - 3.2 °F 85% 30.15 in 0.9 mi Variable 1.2 mph - N/A   Scattered Clouds
7:50 AM 6.8 °F - 5.0 °F 92% 30.15 in 0.2 mi Calm Calm - N/A Fog Light Freezing Fog
8:00 AM 7 °F - 7 °F 99%  in 0 mi Calm Calm - - Fog Heavy Fog
8:50 AM 12.2 °F - 10.4 °F 92% 30.18 in 0.1 mi Calm Calm - N/A Fog Light Freezing Fog
9:50 AM 12.2 °F - 10.4 °F 92% 30.18 in 0.5 mi Calm Calm - N/A Fog Light Freezing Fog
10:50 AM 14.0 °F - 12.2 °F 93% 30.15 in 0.7 mi Calm Calm - N/A Fog Patches of Fog
11:50 AM 17.6 °F - 17.6 °F 100% 30.12 in 1.6 mi Calm Calm - N/A Fog Patches of Fog
12:50 PM 21.2 °F - 19.4 °F 93% 30.09 in 2.2 mi Calm Calm - N/A Fog Patches of Fog
1:50 PM 23.0 °F - 21.2 °F 93% 30.09 in 4.3 mi South 2.3 mph - N/A   Scattered Clouds
2:00 PM 22 °F - 21 °F 96%  in 4 mi South 2.3 mph - - Fog Light Fog
2:50 PM 24.8 °F - 21.2 °F 86% 30.09 in 6.2 mi Variable 1.2 mph - N/A   Scattered Clouds
3:50 PM 21.2 °F 12.6 °F 19.4 °F 93% 30.09 in 6.2 mi NE 6.9 mph - N/A   Scattered Clouds
4:50 PM 21.2 °F 12.6 °F 19.4 °F 93% 30.09 in 6.2 mi NNE 6.9 mph - N/A   Mostly Cloudy
5:50 PM 17.6 °F - 17.6 °F 100% 30.09 in 6.2 mi Variable 2.3 mph - N/A   Mostly Cloudy
6:50 PM 21.2 °F 13.6 °F 19.4 °F 93% 30.09 in 6.2 mi East 5.8 mph - N/A   Mostly Cloudy
7:50 PM 19.4 °F - 17.6 °F 93% 30.09 in 6.2 mi Calm Calm - N/A   Mostly Cloudy
8:00 PM 20 °F - 19 °F 95%  in 6 mi Calm Calm - -   Mostly Cloudy
8:50 PM 17.6 °F 10.7 °F 17.6 °F 100% 30.09 in 6.2 mi North 4.6 mph - N/A   Mostly Cloudy
9:50 PM 23.0 °F - 21.2 °F 93% 30.06 in 6.2 mi Calm Calm - N/A   Mostly Cloudy
10:50 PM 23.0 °F - 21.2 °F 93% 30.06 in 6.2 mi Variable 2.3 mph - N/A   Mostly Cloudy
11:50 PM 32.0 °F 23.0 °F 26.6 °F 80% 30.04 in 6.2 mi West 11.5 mph - N/A   Overcast